Location: Düngen
(52.0952°N, 10.0219°E)
Time: 18:50:51
(UTC+00:00)

IRS-1C Rocket - Pass Details

Date: 11 March 2026
Orbit: 800 x 804 km, 98.7° (Epoch: 20 April)

Event Time Altitude Azimuth Distance (km) Brightness Sun altitude
Exits shadow 20:36:43 58° 1° (N) 939 4.5 -29.6°
Drops below altitude 10° 20:40:57 10° 347° (NNW) 2,390 7.1 -30.1°
Sets 20:43:18 0° 346° (NNW) 3,326 8.0 -30.4°
